Weather History for Anderson, SC

Change the Weather History Date:

Tuesday, February 12, 2013

  Actual Average Record
Temperature  
Mean Temperature 50 °F -  
Max Temperature 57 °F 54 °F 73 °F (1961)
Min Temperature 44 °F 32 °F 12 °F (1981)
Degree Days  
Heating Degree Days 14    
Moisture  
Dew Point 41 °F    
Average Humidity 74    
Maximum Humidity 96    
Minimum Humidity 40    
Precipitation  
Precipitation 0.21 in - - ()
Sea Level Pressure  
Sea Level Pressure 30.01 in    
Wind  
Wind Speed 3 mph (ENE)    
Max Wind Speed 12 mph    
Max Gust Speed -    
Visibility 10 miles    
Events Rain    
Averages and records for this station are not official NWS values.
T = Trace of Precipitation, MM = Missing Value Source: NWS Daily Summary

Daily Weather History Graph

Daily Weather History Graph

Search for Another Location

Airport:

Trip Planner

Search our weather history database for the weather conditions in past years. The results will help you decide how hot, cold, wet, or windy it might be!

Date:

Astronomy

Feb. 12, 2013 Rise Set
Actual Time 7:18 AM EST 6:11 PM EST
Civil Twilight 6:53 AM EST 6:37 PM EST
Nautical Twilight 6:23 AM EST 7:07 PM EST
Astronomical Twilight 5:54 AM EST 7:36 PM EST
Moon 8:24 AM EST (2/12) 9:00 PM EST (2/12)
Length of Visible Light 11h 44m
Length of Day
10h 52m
Waxing Crescent, 7% of the Moon is Illuminated
Feb 12
Waxing Crescent
Feb 17
First Quarter
Feb 25
Full
Mar 4
Last Quarter
Mar 11
New

Hourly Weather History & Observations

Time (EST) Temp. Windchill Dew Point Humidity Pressure Visibility Wind Dir Wind Speed Gust Speed Precip Events Conditions
12:56 AM 51.1 °F - 48.0 °F 89% 30.03 in 10.0 mi Calm Calm - N/A   Scattered Clouds
1:56 AM 50.0 °F - 46.0 °F 86% 30.03 in 10.0 mi West 4.6 mph - N/A   Clear
2:56 AM 50.0 °F - 46.0 °F 86% 30.02 in 10.0 mi WSW 3.5 mph - N/A   Clear
3:56 AM 48.0 °F - 45.0 °F 89% 30.02 in 10.0 mi Calm Calm - N/A   Clear
4:56 AM 46.9 °F - 43.0 °F 86% 30.04 in 10.0 mi SW 3.5 mph - N/A   Clear
5:56 AM 46.0 °F - 43.0 °F 89% 30.03 in 10.0 mi Calm Calm - N/A   Clear
6:56 AM 44.1 °F - 43.0 °F 96% 30.05 in 10.0 mi Calm Calm - N/A   Clear
7:56 AM 44.1 °F 42.5 °F 43.0 °F 96% 30.08 in 10.0 mi NW 3.5 mph - N/A   Clear
8:56 AM 46.9 °F - 44.1 °F 90% 30.10 in 10.0 mi Calm Calm - N/A   Clear
9:56 AM 52.0 °F - 41.0 °F 66% 30.09 in 10.0 mi ENE 6.9 mph - N/A   Clear
10:56 AM 55.9 °F - 32.0 °F 40% 30.06 in 10.0 mi NE 8.1 mph - N/A   Clear
11:56 AM 57.9 °F - 34.0 °F 41% 30.04 in 10.0 mi Variable 5.8 mph - N/A   Clear
12:56 PM 57.9 °F - 37.0 °F 46% 30.04 in 10.0 mi SE 3.5 mph - N/A   Clear
1:56 PM 57.9 °F - 34.0 °F 41% 30.02 in 10.0 mi Calm Calm - N/A   Clear
2:56 PM 57.9 °F - 34.0 °F 41% 29.99 in 10.0 mi Calm Calm - N/A   Clear
3:56 PM 57.0 °F - 34.0 °F 42% 30.01 in 10.0 mi SSW 3.5 mph - N/A   Overcast
4:56 PM 55.0 °F - 39.0 °F 55% 29.96 in 10.0 mi NNE 3.5 mph - 0.00 in Rain Light Rain
5:56 PM 53.1 °F - 41.0 °F 64% 29.93 in 10.0 mi NNE 3.5 mph - 0.01 in   Overcast
6:56 PM 50.0 °F - 45.0 °F 83% 29.98 in 10.0 mi Calm Calm - 0.01 in Rain Light Rain
7:56 PM 48.9 °F - 46.9 °F 93% 29.99 in 10.0 mi NNW 3.5 mph - 0.03 in Rain Light Rain
8:56 PM 48.0 °F - 45.0 °F 89% 29.96 in 10.0 mi ESE 4.6 mph - 0.02 in   Overcast
9:56 PM 48.0 °F - 43.0 °F 83% 29.99 in 10.0 mi SE 4.6 mph - 0.03 in Rain Light Rain
10:56 PM 46.0 °F 42.5 °F 43.0 °F 89% 29.94 in 5.0 mi ENE 6.9 mph - 0.06 in Rain Heavy Rain
11:56 PM 45.0 °F 39.3 °F 42.1 °F 90% 29.88 in 10.0 mi ENE 11.5 mph - 0.05 in   Overcast